Houghton, MI

6:59 PM EDT on May 24, 2017 (GMT -0400)
Houghton County Memorial

Weather History for KCMX - December, 2013

Change the Weather History Date:

Monday, December 16, 2013

  Actual Average Record
Temperature  
Mean Temperature 16 °F -  
Max Temperature 30 °F 26 °F 47 °F (1984)
Min Temperature 3 °F 16 °F -11 °F (2008)
Degree Days  
Heating Degree Days 48    
Moisture  
Dew Point 4 °F    
Average Humidity 56    
Maximum Humidity 85    
Minimum Humidity 28    
Precipitation  
Precipitation 0.00 in - - ()
Sea Level Pressure  
Sea Level Pressure 29.95 in    
Wind  
Wind Speed 3 mph (SSW)    
Max Wind Speed 10 mph    
Max Gust Speed -    
Visibility 5 miles    
Events Snow    
Averages and records for this station are not official NWS values.
T = Trace of Precipitation, MM = Missing Value Source: NWS Daily Summary

Daily Weather History Graph

Daily Weather History Graph

Search for Another Location

Airport or City:

Trip Planner

Search our weather history database for the weather conditions in past years. The results will help you decide how hot, cold, wet, or windy it might be!

Date:

Astronomy

Dec. 16, 2013 Rise Set
Actual Time 8:34 AM EST 5:04 PM EST
Civil Twilight 7:59 AM EST 5:40 PM EST
Nautical Twilight 7:20 AM EST 6:19 PM EST
Astronomical Twilight 6:42 AM EST 6:56 PM EST
Moon 4:58 PM EST (12/16) 7:39 AM EST (12/16)
Length of Visible Light 9h 41m
Length of Day
8h 30m
Full, 100% of the Moon is Illuminated
Dec 16
Full
Dec 17
Full
Dec 25
Last Quarter
Jan 1
New
Jan 7
First Quarter

Hourly Weather History & Observations

Time (EST) Temp. Windchill Dew Point Humidity Pressure Visibility Wind Dir Wind Speed Gust Speed Precip Events Conditions
12:02 AM 8.6 °F - 3.2 °F 79% 30.02 in 2.5 mi Calm Calm - 0.00 in Snow Light Snow
12:08 AM 8.6 °F - 3.2 °F 79% 30.02 in 1.8 mi Calm Calm - 0.00 in Snow Light Snow
12:22 AM 8.6 °F - 3.2 °F 79% 30.02 in 2.5 mi Calm Calm - 0.00 in Snow Light Snow
12:36 AM 8.6 °F - 3.2 °F 79% 30.02 in 1.2 mi Calm Calm - 0.00 in Snow Light Snow
12:50 AM 8.6 °F - 3.2 °F 79% 30.02 in 3.0 mi Calm Calm - 0.00 in Snow Light Snow
12:51 AM 9.0 °F - 3.9 °F 80% 30.10 in 3.0 mi Calm Calm - 0.00 in Snow Light Snow
12:58 AM 8.6 °F - 3.2 °F 79% 30.02 in 3.0 mi Calm Calm - 0.00 in Snow Light Snow
1:15 AM 6.8 °F - 3.2 °F 85% 30.02 in 2.5 mi Calm Calm - 0.00 in Snow Light Snow
1:53 AM 7.0 °F 0.1 °F 3.0 °F 84% 30.09 in 2.0 mi WNW 3.5 mph - 0.00 in Snow Light Snow
2:09 AM 10.4 °F - 3.2 °F 73% 30.02 in 3.0 mi Calm Calm - 0.00 in Snow Light Snow
2:50 AM 8.6 °F - 3.2 °F 79% 30.02 in 2.5 mi Calm Calm - 0.00 in Snow Light Snow
2:53 AM 9.0 °F - 3.9 °F 80% 30.10 in 2.0 mi Calm Calm - 0.00 in Snow Light Snow
3:01 AM 8.6 °F - 3.2 °F 79% 30.02 in 1.5 mi Calm Calm - 0.00 in Snow Light Snow
3:13 AM 8.6 °F - 3.2 °F 79% 30.02 in 2.0 mi Calm Calm - 0.00 in Snow Light Snow
3:31 AM 8.6 °F - 3.2 °F 79% 30.02 in 1.5 mi Calm Calm - 0.00 in Snow Light Snow
3:38 AM 8.6 °F - 3.2 °F 79% 30.02 in 2.5 mi Calm Calm - 0.00 in Snow Light Snow
3:53 AM 7.0 °F - 1.9 °F 80% 30.10 in 2.0 mi Calm Calm - 0.00 in Snow Light Snow
4:23 AM 6.8 °F - 3.2 °F 85% 30.02 in 5.0 mi Calm Calm - 0.00 in Snow Light Snow
4:53 AM 7.0 °F - 1.9 °F 80% 30.09 in 6.0 mi Calm Calm - 0.00 in Snow Light Snow
5:36 AM 8.6 °F - 3.2 °F 79% 30.02 in 5.0 mi Calm Calm - 0.00 in Snow Light Snow
5:53 AM 8.1 °F - 3.0 °F 80% 30.11 in 5.0 mi Calm Calm - 0.00 in Snow Light Snow
6:53 AM 8.1 °F - 1.9 °F 76% 30.09 in 10.0 mi Calm Calm - 0.00 in   Overcast
7:46 AM 6.8 °F - 1.4 °F 79% 30.01 in 10.0 mi Calm Calm - N/A   Overcast
7:53 AM 7.0 °F - 1.9 °F 80% 30.08 in 10.0 mi Calm Calm - N/A   Overcast
8:10 AM 6.8 °F -0.1 °F 1.4 °F 79% 30.00 in 10.0 mi South 3.5 mph - N/A   Overcast
8:42 AM 5.0 °F -2.1 °F -0.4 °F 78% 30.00 in 10.0 mi WSW 3.5 mph - N/A   Scattered Clouds
8:53 AM 3.9 °F -5.3 °F -0.9 °F 80% 30.06 in 10.0 mi South 4.6 mph - N/A   Clear
9:53 AM 6.1 °F -5.6 °F -0.0 °F 76% 30.07 in 10.0 mi SSW 6.9 mph - N/A   Overcast
10:53 AM 26.1 °F 19.4 °F -0.0 °F 32% 30.06 in 10.0 mi SSW 5.8 mph - N/A   Overcast
11:22 AM 10.4 °F -1.5 °F 1.4 °F 67% 29.97 in 2.0 mi South 8.1 mph - N/A   Haze
11:31 AM 19.4 °F 8.6 °F 1.4 °F 46% 29.96 in 1.5 mi South 9.2 mph - N/A   Haze
11:42 AM 28.4 °F 20.4 °F 1.4 °F 31% 29.96 in 10.0 mi South 8.1 mph - N/A   Overcast
11:53 AM 28.9 °F 20.4 °F 1.0 °F 30% 30.01 in 10.0 mi South 9.2 mph - N/A   Overcast
12:22 PM 28.4 °F 21.2 °F 1.4 °F 31% 29.94 in 1.2 mi South 6.9 mph - N/A   Haze
12:32 PM 28.4 °F 20.4 °F 1.4 °F 31% 29.94 in 10.0 mi South 8.1 mph - N/A   Overcast
12:53 PM 28.9 °F 21.1 °F 1.0 °F 30% 30.00 in 10.0 mi South 8.1 mph - N/A   Overcast
1:53 PM 30.9 °F 25.2 °F 1.0 °F 28% 29.99 in 10.0 mi WSW 5.8 mph - N/A   Overcast
2:53 PM 30.9 °F 24.3 °F 3.0 °F 31% 29.95 in 2.5 mi South 6.9 mph - 0.00 in Snow Light Snow
3:02 PM 24.8 °F 16.1 °F 3.2 °F 40% 29.88 in 5.0 mi SSE 8.1 mph - 0.00 in Snow Light Snow
3:12 PM 21.2 °F 10.9 °F 3.2 °F 46% 29.87 in 1.8 mi SSE 9.2 mph - 0.00 in Snow Light Snow
3:43 PM 28.4 °F 19.1 °F 5.0 °F 37% 29.88 in 0.8 mi South 10.4 mph - 0.00 in Snow Light Snow
3:53 PM 26.1 °F 16.2 °F 5.0 °F 41% 29.94 in 0.8 mi South 10.4 mph - 0.00 in Snow Light Snow
4:00 PM 26.6 °F 16.8 °F 6.8 °F 43% 29.87 in 1.2 mi South 10.4 mph - 0.00 in Snow Light Snow
4:20 PM 26.6 °F 17.5 °F 6.8 °F 43% 29.87 in 0.5 mi South 9.2 mph - 0.00 in Snow Snow
4:39 PM 26.6 °F 17.5 °F 6.8 °F 43% 29.86 in 0.5 mi South 9.2 mph - 0.00 in Snow Snow
4:53 PM 28.0 °F 18.6 °F 6.1 °F 39% 29.92 in 0.8 mi South 10.4 mph - 0.00 in Snow Light Snow
5:15 PM 26.6 °F 18.2 °F 6.8 °F 43% 29.85 in 1.5 mi South 8.1 mph - 0.00 in Snow Light Snow
5:41 PM 28.4 °F 22.2 °F 6.8 °F 40% 29.85 in 2.5 mi South 5.8 mph - 0.00 in Snow Light Snow
5:49 PM 28.4 °F 21.2 °F 6.8 °F 40% 29.84 in 4.0 mi South 6.9 mph - 0.00 in Snow Light Snow
5:53 PM 30.0 °F 22.4 °F 7.0 °F 38% 29.90 in 3.0 mi South 8.1 mph - 0.00 in Snow Light Snow
6:11 PM 28.4 °F 20.4 °F 6.8 °F 40% 29.83 in 2.5 mi South 8.1 mph - 0.00 in Snow Light Snow
6:23 PM 30.2 °F 23.4 °F 6.8 °F 37% 29.83 in 3.0 mi SSW 6.9 mph - 0.00 in Snow Light Snow
6:53 PM 30.0 °F 24.1 °F 6.1 °F 36% 29.88 in 7.0 mi SSW 5.8 mph - 0.00 in Snow Light Snow
7:09 PM 30.2 °F 21.9 °F 6.8 °F 37% 29.82 in 9.0 mi SSW 9.2 mph - 0.00 in Snow Light Snow
7:44 PM 28.4 °F 19.1 °F 6.8 °F 40% 29.81 in 2.5 mi SSW 10.4 mph - 0.00 in Snow Light Snow
7:51 PM 28.4 °F 20.4 °F 6.8 °F 40% 29.81 in 4.0 mi SSW 8.1 mph - 0.00 in Snow Light Snow
7:53 PM 28.0 °F 20.8 °F 6.1 °F 39% 29.87 in 5.0 mi SSW 6.9 mph - 0.00 in Snow Light Snow
8:11 PM 28.4 °F 20.4 °F 6.8 °F 40% 29.80 in 4.0 mi SSW 8.1 mph - 0.00 in Snow Light Snow
8:18 PM 28.4 °F 21.2 °F 6.8 °F 40% 29.80 in 3.0 mi SSW 6.9 mph - 0.00 in Snow Light Snow
8:53 PM 28.0 °F 19.3 °F 5.0 °F 38% 29.86 in 8.0 mi SSW 9.2 mph - 0.00 in Snow Light Snow
9:53 PM 28.0 °F 20.0 °F 5.0 °F 38% 29.84 in 10.0 mi SW 8.1 mph - 0.00 in   Overcast
10:53 PM 30.0 °F 22.4 °F 5.0 °F 35% 29.81 in 5.0 mi SSW 8.1 mph - 0.00 in Snow Light Snow
11:42 PM 30.2 °F 24.3 °F 5.0 °F 34% 29.76 in 10.0 mi SSW 5.8 mph - 0.00 in   Overcast
11:53 PM 30.0 °F 24.1 °F 5.0 °F 35% 29.79 in 10.0 mi SSW 5.8 mph - 0.00 in   Overcast